sat.trackr.live / text

‹ back to catalog

LEMUR-2-HUBBLE-4

NORAD 64565 · 2025-135AP

PAYLOAD ACTIVE UNKNOWN

§ Identity

Operator
Country
US
Launch date
2025-06-23
Launch site
AFWTR
Launch vehicle
Mass (kg)
RCS (m²)

Purposes: earth_obs

External: N2YO · Heavens-Above · Gunter

§ Orbital elements

Epoch: 2026-05-24T21:11:55.192416Z

Period
96.42 min
Inclination
97.7654°
Eccentricity
0.0003484
Mean motion
14.93443202 rev/d
Perigee alt
584.8 km
Apogee alt
589.6 km
Semi-major
6,965.3 km
B*
1.6436e-4
RAAN
259.0766°
Arg perigee
41.6170°
Mean anomaly
318.5314°
Rev number
5,039

§ Raw data

LEMUR-2-HUBBLE-41 64565U 25135AP  26144.88327769  .00001671  00000+0  16436-3 0  99962 64565  97.7654 259.0766 0003484  41.6170 318.5314 14.93443202 50393

JSON: /api/v1/satellites/64565 · /tle

For live sub-satellite position, see the globe view (requires WebGL).

§ Visibility from observer

Set your observer location to see the next 7 days of passes ≥ 10°. The values pass through the URL so the page stays shareable.

No JS? Fill the form by hand. The geolocation button needs JavaScript.

§ Radio — SatNOGS DB

ModeDescriptionDownlinkUplink
FM Mode S - Transmitter 1 2.201 GHz
FM Mode S - Transmitter 2 2.023 GHz
FSK Mode U - FSK9k6 402.790 MHz
GMSK Mode U - GMSK4k8 (inactive) 401.100 MHz

4 transmitters · refreshed weekly from db.satnogs.org